Simultaneous Nadir Overpasses (SNOs) Predictions

Prediction of SNOs between LANDSAT-8 and TERRA Satellite Orbit:

Table of predicted SNOs for the next 14.0 days since TLE Epoch: 3/8/2025
Index Date (LANDSAT-8) Time (LANDSAT-8) Lat,Lon (LANDSAT-8) SZA (LANDSAT-8 ) Date (TERRA) Time (TERRA) Lat,Lon (TERRA) SZA (TERRA ) Distance(km) Time Diff (sec)
1 03/10/2025 19:08:36 81.85, -42.68 89.90 03/10/2025 19:09:45 81.84, -42.71 89.93 0.52 69
2 03/10/2025 19:58:02 -81.84, 125.24 90.08 03/10/2025 19:59:04 -81.84, 125.06 90.07 2.81 62
3 03/10/2025 20:47:29 81.84, -67.38 89.88 03/10/2025 20:48:24 81.84, -67.27 89.92 1.82 55
4 03/10/2025 21:36:56 -81.85, 100.11 90.16 03/10/2025 21:37:44 -81.85, 100.08 90.13 0.70 48
5 03/10/2025 22:26:22 81.84, -92.08 89.86 03/10/2025 22:27:04 81.85, -92.24 89.86 2.68 42
6 03/10/2025 23:15:49 -81.85, 75.41 90.18 03/10/2025 23:16:23 -81.85, 75.53 90.15 1.85 34
7 03/11/2025 00:05:15 81.84,-116.78 89.83 03/11/2025 00:05:43 81.85,-116.80 89.85 0.42 28
8 03/11/2025 00:54:41 -81.84, 51.14 90.15 03/11/2025 00:55:02 -81.84, 50.97 90.16 2.67 21
9 03/11/2025 01:44:08 81.84,-141.48 89.81 03/11/2025 01:44:22 81.84,-141.35 89.83 1.93 14
10 03/11/2025 02:33:34 -81.84, 26.44 90.18 03/11/2025 02:33:41 -81.84, 26.41 90.18 0.53 7
11 03/11/2025 03:23:00 81.84,-165.75 89.84 03/11/2025 03:23:01 81.84,-165.91 89.82 2.60 1
12 03/11/2025 04:12:27 -81.84, 1.74 90.20 03/11/2025 04:12:20 -81.84, 1.85 90.19 1.94 7
13 03/11/2025 05:01:54 81.84, 169.12 89.76 03/11/2025 05:01:41 81.85, 169.11 89.76 0.62 13
14 03/11/2025 05:51:20 -81.84, -22.96 90.22 03/11/2025 05:51:00 -81.85, -23.12 90.25 2.58 20
15 03/11/2025 06:40:47 81.84, 144.42 89.74 03/11/2025 06:40:20 81.85, 144.56 89.74 2.10 27
16 03/11/2025 07:30:13 -81.84, -47.66 90.25 03/11/2025 07:29:39 -81.84, -47.68 90.27 0.31 34
17 03/11/2025 08:19:39 81.84, 120.15 89.77 03/11/2025 08:18:59 81.84, 120.00 89.73 2.43 40
18 03/11/2025 09:09:06 -81.84, -72.36 90.27 03/11/2025 09:08:18 -81.84, -72.24 90.28 1.96 48
19 03/11/2025 09:58:32 81.84, 95.45 89.74 03/11/2025 09:57:38 81.84, 95.44 89.71 0.31 54
20 03/11/2025 10:47:59 -81.84, -97.06 90.29 03/11/2025 10:46:58 -81.85, -97.22 90.34 2.56 61



Historial Predications of SNOs between LANDSAT-8 and TERRA
